Location: Seale
(32.2974°N, 85.1688°W)
Time: 23:17:46
(UTC+00:00)

X-37B - Pass Details

Date: 28 January 2021
Orbit: 383 x 391 km, 45.0° (Epoch: 10 February)

Event Time Altitude Azimuth Distance (km) Brightness Sun altitude
Rises 23:55:17 0° 317° (NW) 2,272 4.9 -9.8°
Reaches altitude 10° 23:58:20 10° 348° (NNW) 1,418 3.4 -10.4°
Maximum altitude 23:59:47 12° 15° (NNE) 1,281 2.9 -10.7°
Enters shadow 00:00:49 11° 35° (NE) 1,352 2.9 -10.9°
